Weather in Cirebon

Indonesia     6°44′38″S   108°33′23″E
temp.,
°C
wind,
m/s
gust,
m/s
humid.,
%
clouds,
%
prec.,
mm/h
press.,
hPa
HPBL,
m
28 july, wed
wed2801:00+22ssw228290 0.0 101149
04:00+21ssw228119 0.0 101141
07:00+23ssw23789 0.0 1012119
10:00+30se45513 0.0 10121242
13:00+31e55455 0.0 10091400
16:00+30se45515 0.0 1008962
19:00+24s46738 0.0 1011160
22:00+23ssw347822 0.0 1013113
29 july, thu
thu2901:00+22s22775 0.0 101155
04:00+22s23765 0.0 101172
07:00+23ssw23725 0.0 1013140
10:00+30sse334742 0.0 10131171
13:00+33ese4439100 0.0 10101700
16:00+31ese454887 0.0 1009981
19:00+25s247199 0.0 1011131
22:00+24ssw337993 0.0 101398
30 july, fri
fri3001:00+23s348396 0.0 1011109
04:00+22ssw338119 0.0 101176
07:00+24s237565 0.0 1013137
10:00+30se23508 0.0 10131327
13:00+32ene54468 0.0 10101557
16:00+30e44533 0.0 1009849
19:00+25sse34761 0.0 1012135
22:00+24ssw358236 0.0 1013140
31 july, sat
sat3101:00+24ssw358116 0.0 1012156
04:00+23s348399 0.0 1011113
07:00+25s35756 0.0 1012245
10:00+30sse45535 0.0 10121253
13:00+33se454711 0.0 10091842
16:00+31se56543 0.0 10081049
19:00+25s477745 0.0 1011253
22:00+24ssw467812 0.0 1012199
1 august, sun
sun101:00+24s457922 0.0 1011209
04:00+23ssw35805 0.0 1010152
07:00+25s24746 0.0 1011246
10:00+31sse455169 0.0 10111373
13:00+31ese455397 0.1 10081331
16:00+30sse665619 0.0 10081067
19:00+25s467310 0.0 1010236
22:00+25ssw467521 0.0 1011219